FW6209 Weather Reports


Display with metric or nautical units.
time (UTC)temp
F
wind
direction
speed
MPH
gust
MPH
rain 1hr
in
rain 24hr
in
rain mn
in
humidity
%
barometer
mb
20260510024000 63 355 0.0 0.0 0.00 0.00 0.00 77 1011.1
20260510023453 63 355 0.0 0.0 0.00 0.00 0.00 75 1011.1
20260510022949 64 355 0.0 0.0 0.00 0.00 0.00 75 1011.1
20260510022442 64 355 0.0 0.0 0.00 0.00 0.00 73 1011.1
20260510021935 65 355 0.0 2.0 0.00 0.00 0.00 73 1011.0
20260510021429 66 0 0.0 2.0 0.00 0.00 0.00 71 1011.0
20260510021143 67 337 0.0 2.0 0.00 0.00 0.00 69 1010.9
20260510020418 68 22 0.0 2.0 0.00 0.00 0.00 68 1010.9
20260510015913 69 18 0.0 0.0 0.00 0.00 0.00 66 1010.9
20260510015405 69 111 0.0 0.0 0.00 0.00 0.00 65 1011.0
20260510014901 71 55 0.0 0.0 0.00 0.00 0.00 63 1011.0
20260510014354 71 222 0.0 0.0 0.00 0.00 0.00 61 1011.0
20260510013847 72 222 0.0 0.0 0.00 0.00 0.00 60 1011.0
20260510013341 72 213 0.0 0.0 0.00 0.00 0.00 60 1011.0
20260510012835 72 220 0.0 2.0 0.00 0.00 0.00 60 1010.9
20260510012329 72 165 0.0 2.0 0.00 0.00 0.00 60 1011.0
20260510012043 72 232 0.0 5.0 0.00 0.00 0.00 60 1011.0
20260510011317 72 211 0.0 5.0 0.00 0.00 0.00 59 1010.8
20260510010812 73 186 0.0 5.0 0.00 0.00 0.00 59 1010.8
20260510010306 73 245 0.0 5.0 0.00 0.00 0.00 57 1010.9
20260510005759 74 173 0.0 3.0 0.00 0.00 0.00 56 1010.9
20260510005253 74 207 0.0 2.0 0.00 0.00 0.00 55 1010.9
20260510004747 75 166 0.0 5.0 0.00 0.00 0.00 54 1010.9
20260510004459 76 231 0.0 5.0 0.00 0.00 0.00 53 1010.8
20260510003735 76 188 0.0 5.0 0.00 0.00 0.00 52 1010.8
20260510003230 77 232 1.0 6.0 0.00 0.00 0.00 52 1011.0
20260510002724 77 244 1.0 6.0 0.00 0.00 0.00 52 1010.9
20260510002218 77 228 0.0 6.0 0.00 0.00 0.00 51 1010.9
20260510002156 77 177 0.0 6.0 0.00 0.00 0.00 49 1010.9
20260510001430 77 173 1.0 6.0 0.00 0.00 0.00 49 1010.9
20260510000659 78 238 1.0 6.0 0.00 0.00 0.00 49 1010.8
20260510000418 78 177 0.0 5.0 0.00 0.00 0.00 49 1010.9
20260509235647 77 195 1.0 5.0 0.00 0.00 0.00 49 1010.8
20260509235142 77 230 1.0 6.0 0.00 0.00 0.00 49 1010.7
20260509234636 78 278 1.0 6.0 0.00 0.00 0.00 49 1010.8
20260509234130 78 212 1.0 7.0 0.00 0.00 0.00 47 1010.7
20260509233624 78 175 1.0 7.0 0.00 0.00 0.00 48 1010.8
20260509233343 78 206 1.0 8.0 0.00 0.00 0.00 47 1010.8
20260509232611 78 165 0.0 8.0 0.00 0.00 0.00 46 1010.8
20260509232106 78 184 1.0 8.0 0.00 0.00 0.00 48 1010.9
20260509231600 78 227 1.0 8.0 0.00 0.00 0.00 47 1010.9
20260509231053 78 243 2.0 8.0 0.00 0.00 0.00 45 1011.0
20260509230548 78 225 1.0 8.0 0.00 0.00 0.00 46 1011.0
20260509230042 78 257 1.0 9.0 0.00 0.00 0.00 46 1011.0
20260509230018 78 208 1.0 9.0 0.00 0.00 0.00 47 1011.1
20260509225029 78 183 1.0 7.0 0.00 0.00 0.00 47 1011.0
20260509224748 79 198 1.0 8.0 0.00 0.00 0.00 45 1010.9
20260509224017 79 205 1.0 8.0 0.00 0.00 0.00 45 1011.1
20260509223737 79 211 1.0 9.0 0.00 0.00 0.00 43 1011.0
20260509223005 79 229 1.0 9.0 0.00 0.00 0.00 44 1011.1
20260509222500 79 248 2.0 10.0 0.00 0.00 0.00 44 1011.4
20260509221954 79 193 2.0 10.0 0.00 0.00 0.00 42 1011.4
20260509221448 80 245 1.0 7.0 0.00 0.00 0.00 42 1011.4
20260509220941 80 142 1.0 8.0 0.00 0.00 0.00 45 1011.3
20260509220435 80 191 1.0 6.0 0.00 0.00 0.00 44 1011.4
20260509215931 80 217 0.0 7.0 0.00 0.00 0.00 43 1011.5
20260509215423 79 186 0.0 7.0 0.00 0.00 0.00 44 1011.6
20260509214917 79 225 1.0 8.0 0.00 0.00 0.00 43 1011.4
20260509214411 78 150 2.0 10.0 0.00 0.00 0.00 45 1011.5
20260509213905 78 210 2.0 10.0 0.00 0.00 0.00 48 1011.4
20260509213359 78 232 4.0 11.0 0.00 0.00 0.00 47 1011.6
20260509212853 78 230 5.0 11.0 0.00 0.00 0.00 49 1011.6
20260509212348 78 232 4.0 11.0 0.00 0.00 0.00 49 1011.5
20260509211841 79 234 3.0 9.0 0.00 0.00 0.00 48 1011.7
20260509211342 80 232 2.0 9.0 0.00 0.00 0.00 48 1011.7
20260509211105 80 265 1.0 9.0 0.00 0.00 0.00 49 1011.7
20260509210341 80 226 2.0 9.0 0.00 0.00 0.00 49 1011.7
20260509205839 80 252 1.0 9.0 0.00 0.00 0.00 50 1011.8
20260509205342 81 215 2.0 10.0 0.00 0.00 0.00 49 1011.8
20260509204838 81 317 2.0 10.0 0.00 0.00 0.00 48 1012.0
20260509204339 81 164 1.0 8.0 0.00 0.00 0.00 48 1011.9
20260509203834 82 199 1.0 7.0 0.00 0.00 0.00 49 1011.8
20260509203337 81 207 1.0 8.0 0.00 0.00 0.00 49 1011.8
20260509203100 81 256 1.0 8.0 0.00 0.00 0.00 49 1011.8
20260509202337 81 251 2.0 9.0 0.00 0.00 0.00 49 1011.8
20260509201833 81 140 3.0 9.0 0.00 0.00 0.00 49 1011.9
20260509201332 81 227 3.0 10.0 0.00 0.00 0.00 49 1011.9
20260509200830 81 211 4.0 10.0 0.00 0.00 0.00 50 1011.8
20260509200334 82 235 4.0 12.0 0.00 0.00 0.00 49 1011.8
20260509195832 82 251 2.0 12.0 0.00 0.00 0.00 48 1011.8
20260509195328 82 251 1.0 7.0 0.00 0.00 0.00 47 1011.9
20260509194830 82 217 1.0 7.0 0.00 0.00 0.00 49 1011.8
20260509194330 82 277 0.0 5.0 0.00 0.00 0.00 41 1011.9
20260509193823 82 132 0.0 5.0 0.00 0.00 0.00 40 1012.0
20260509193318 81 275 1.0 6.0 0.00 0.00 0.00 40 1012.1
20260509192812 81 260 1.0 6.0 0.00 0.00 0.00 40 1012.2
20260509192318 81 174 1.0 6.0 0.00 0.00 0.00 37 1012.1
20260509191800 81 159 1.0 7.0 0.00 0.00 0.00 40 1012.1
20260509191255 80 236 1.0 6.0 0.00 0.00 0.00 42 1012.2
20260509191011 80 228 1.0 6.0 0.00 0.00 0.00 42 1012.3
20260509190245 80 279 1.0 6.0 0.00 0.00 0.00 44 1012.3
20260509185737 80 175 0.0 5.0 0.00 0.00 0.00 43 1012.3
20260509185230 80 256 0.0 5.0 0.00 0.00 0.00 45 1012.3
20260509184724 79 185 0.0 5.0 0.00 0.00 0.00 46 1012.4
20260509184218 78 161 0.0 5.0 0.00 0.00 0.00 48 1012.4
20260509183945 78 288 1.0 6.0 0.00 0.00 0.00 55 1012.4
20260509183427 78 115 1.0 6.0 0.00 0.00 0.00 48 1012.4
20260509182702 77 237 1.0 4.0 0.00 0.00 0.00 51 1012.3
20260509182154 78 346 0.0 4.0 0.00 0.00 0.00 57 1012.3
20260509181649 78 36 0.0 3.0 0.00 0.00 0.00 55 1012.3
20260509181142 77 287 0.0 3.0 0.00 0.00 0.00 55 1012.4
20260509180636 76 12 0.0 5.0 0.00 0.00 0.00 57 1012.5
20260509180130 75 192 0.0 5.0 0.00 0.00 0.00 59 1012.5
20260509175626 74 224 0.0 5.0 0.00 0.00 0.00 62 1012.4
20260509175119 73 263 0.0 5.0 0.00 0.00 0.00 64 1012.5
20260509174612 72 28 0.0 4.0 0.00 0.00 0.00 65 1012.6
20260509174106 72 77 0.0 4.0 0.00 0.00 0.00 66 1012.6
20260509173600 71 11 0.0 4.0 0.00 0.00 0.00 67 1012.7
20260509173054 71 325 0.0 4.0 0.00 0.00 0.00 69 1012.7
20260509172549 70 0 0.0 4.0 0.00 0.00 0.00 69 1012.6
20260509172042 70 331 0.0 4.0 0.00 0.00 0.00 69 1012.6
20260509171541 69 355 0.0 5.0 0.00 0.00 0.00 71 1012.6
20260509171258 69 10 0.0 5.0 0.00 0.00 0.00 71 1012.6
20260509170544 68 9 1.0 5.0 0.00 0.00 0.00 72 1012.7
20260509170044 68 27 1.0 5.0 0.00 0.00 0.00 73 1012.6
20260509165542 68 310 1.0 4.0 0.00 0.00 0.00 73 1012.6
20260509165042 67 37 0.0 2.0 0.00 0.00 0.00 74 1012.6
20260509164544 67 13 0.0 2.0 0.00 0.00 0.00 75 1012.6
20260509164043 66 5 0.0 3.0 0.00 0.00 0.00 76 1012.6
20260509163539 66 323 0.0 3.0 0.00 0.00 0.00 78 1012.5
20260509163040 65 355 0.0 2.0 0.00 0.00 0.00 79 1012.5
20260509162541 65 250 0.0 2.0 0.00 0.00 0.00 80 1012.5
20260509162042 64 317 0.0 2.0 0.00 0.00 0.00 81 1012.5
20260509161542 63 350 0.0 3.0 0.00 0.00 0.00 82 1012.6
20260509161043 63 0 0.0 3.0 0.00 0.00 0.00 83 1012.5
20260509160540 63 31 0.0 3.0 0.00 0.00 0.00 84 1012.5
20260509160038 62 336 0.0 3.0 0.00 0.00 0.00 85 1012.5
20260509155539 62 317 0.0 0.0 0.00 0.00 0.00 87 1012.5
20260509155037 61 61 0.0 0.0 0.00 0.00 0.00 90 1012.5
20260509154537 60 286 0.0 1.0 0.00 0.00 0.00 93 1012.5
20260509154036 60 302 0.0 1.0 0.00 0.00 0.00 94 1012.7
20260509153537 59 269 0.0 0.0 0.00 0.00 0.00 97 1012.8
20260509153035 58 95 0.0 0.0 0.00 0.00 0.00 97 1012.8
20260509152534 57 94 0.0 0.0 0.00 0.00 0.00 97 1012.8
20260509152033 57 205 0.0 0.0 0.00 0.00 0.00 96 1012.7
20260509151530 56 217 0.0 0.0 0.00 0.00 0.00 96 1012.7
20260509151032 56 217 0.0 0.0 0.00 0.00 0.00 96 1012.7
20260509150530 56 217 0.0 0.0 0.00 0.00 0.00 97 1012.8
20260509150030 56 212 0.0 0.0 0.00 0.00 0.00 97 1012.7
20260509145753 56 200 0.0 0.0 0.00 0.00 0.00 97 1012.7
20260509145031 56 200 0.0 0.0 0.00 0.00 0.00 97 1012.7
20260509144531 56 200 0.0 0.0 0.00 0.00 0.00 97 1012.8
20260509144029 56 200 0.0 0.0 0.00 0.00 0.00 97 1012.7
20260509143530 56 200 0.0 0.0 0.00 0.00 0.00 97 1012.8
20260509143031 56 200 0.0 0.0 0.00 0.00 0.00 97 1012.7
20260509142531 56 140 0.0 0.0 0.00 0.00 0.00 97 1012.6
20260509142032 56 126 0.0 0.0 0.00 0.00 0.00 97 1012.7
20260509141531 56 126 0.0 0.0 0.00 0.00 0.00 97 1012.6
20260509141030 56 114 0.0 0.0 0.00 0.00 0.00 97 1012.6
20260509140531 56 114 0.0 0.0 0.00 0.00 0.00 97 1012.6
20260509140031 56 114 0.0 0.0 0.00 0.00 0.00 97 1012.5
20260509135757 56 113 0.0 0.0 0.00 0.00 0.00 96 1012.6
20260509135030 56 181 0.0 0.0 0.00 0.00 0.00 97 1012.5
20260509134530 56 198 0.0 0.0 0.00 0.00 0.00 97 1012.4
20260509134031 56 187 0.0 0.0 0.00 0.00 0.00 97 1012.4
20260509133529 56 138 0.0 0.0 0.00 0.00 0.00 97 1012.4
20260509133030 56 175 0.0 0.0 0.00 0.00 0.00 97 1012.4
20260509132530 56 233 0.0 0.0 0.00 0.00 0.00 97 1012.4
20260509132030 56 233 0.0 0.0 0.00 0.00 0.00 96 1012.3
20260509131530 56 169 0.0 0.0 0.00 0.00 0.00 96 1012.4
20260509131029 56 157 0.0 0.0 0.00 0.00 0.00 96 1012.4
20260509130530 56 188 0.0 0.0 0.00 0.00 0.00 96 1012.4
20260509130254 56 188 0.0 0.0 0.00 0.00 0.00 97 1012.2
20260509125531 56 229 0.0 0.0 0.00 0.00 0.00 96 1012.2
20260509125028 56 229 0.0 0.0 0.00 0.00 0.00 97 1012.3
20260509124526 56 229 0.0 0.0 0.00 0.00 0.00 97 1012.2
20260509124026 56 229 0.0 0.0 0.00 0.00 0.00 97 1012.2
20260509123528 56 229 0.0 0.0 0.00 0.00 0.00 97 1012.1
20260509123026 56 229 0.0 0.0 0.00 0.00 0.00 97 1012.2
20260509122530 56 229 0.0 0.0 0.00 0.00 0.00 97 1012.1
20260509122027 56 229 0.0 0.0 0.00 0.00 0.00 96 1012.0
20260509121528 56 229 0.0 0.0 0.00 0.00 0.00 96 1012.0
20260509121026 56 229 0.0 0.0 0.00 0.00 0.00 96 1012.1
20260509120525 56 237 0.0 0.0 0.00 0.00 0.00 97 1012.0
20260509120025 56 254 0.0 0.0 0.00 0.00 0.00 96 1012.0
20260509115527 56 258 0.0 0.0 0.00 0.00 0.00 96 1012.1
20260509115028 56 178 0.0 0.0 0.00 0.00 0.00 96 1012.1
20260509114529 56 178 0.0 0.0 0.00 0.00 0.00 96 1012.0
20260509114027 56 178 0.0 0.0 0.00 0.00 0.00 96 1012.1
20260509113526 56 178 0.0 0.0 0.00 0.00 0.00 97 1011.9
20260509113028 56 207 0.0 0.0 0.00 0.00 0.00 96 1011.8
20260509112524 56 116 0.0 0.0 0.00 0.00 0.00 96 1011.9
20260509112023 56 116 0.0 0.0 0.00 0.00 0.00 96 1011.9
20260509111521 56 116 0.0 0.0 0.00 0.00 0.00 96 1011.9
20260509111246 56 116 0.0 0.0 0.00 0.00 0.00 96 1011.9
20260509110524 56 116 0.0 0.0 0.00 0.00 0.00 96 1011.9
20260509110021 56 134 0.0 0.0 0.00 0.00 0.00 96 1011.9
20260509105523 56 233 0.0 0.0 0.00 0.00 0.00 96 1012.0
20260509105023 56 233 0.0 0.0 0.00 0.00 0.00 96 1012.1
20260509104523 56 233 0.0 0.0 0.00 0.00 0.00 97 1012.2
20260509104020 56 233 0.0 0.0 0.00 0.00 0.00 96 1012.2
20260509103519 56 239 0.0 0.0 0.00 0.00 0.00 96 1012.2
20260509103019 56 211 0.0 0.0 0.00 0.00 0.00 96 1012.3
20260509102519 56 211 0.0 0.0 0.00 0.00 0.00 96 1012.4
20260509102018 56 208 0.0 0.0 0.00 0.00 0.00 96 1012.4
20260509101736 56 182 0.0 0.0 0.00 0.00 0.00 96 1012.5
20260509101020 56 208 0.0 0.0 0.00 0.00 0.00 96 1012.4
20260509100519 56 208 0.0 0.0 0.00 0.00 0.00 96 1012.3
20260509100020 56 150 0.0 0.0 0.00 0.00 0.00 96 1012.3
20260509095515 56 146 0.0 0.0 0.00 0.00 0.00 96 1012.3
20260509095013 55 146 0.0 0.0 0.00 0.00 0.00 96 1012.3
20260509094514 55 146 0.0 2.0 0.00 0.00 0.00 96 1012.3
20260509094014 55 146 0.0 2.0 0.00 0.00 0.00 96 1012.4
20260509093514 55 112 0.0 2.0 0.00 0.00 0.00 96 1012.4
20260509093015 55 112 0.0 2.0 0.00 0.00 0.00 96 1012.5
20260509092517 56 207 0.0 0.0 0.00 0.00 0.00 96 1012.5
20260509092016 56 207 0.0 0.0 0.00 0.00 0.00 96 1012.5
20260509091515 56 243 0.0 0.0 0.00 0.00 0.00 96 1012.6
20260509091012 56 243 0.0 0.0 0.00 0.00 0.00 96 1012.7
20260509090511 56 243 0.0 0.0 0.00 0.00 0.00 96 1012.7
20260509090237 56 243 0.0 0.0 0.00 0.00 0.00 96 1012.7
20260509085511 55 243 0.0 0.0 0.00 0.00 0.00 96 1012.7
20260509085010 55 243 0.0 0.0 0.00 0.00 0.00 96 1012.7
20260509084510 55 236 0.0 0.0 0.00 0.00 0.00 96 1012.8
20260509084009 55 242 0.0 0.0 0.00 0.00 0.00 96 1012.9
20260509083509 55 170 0.0 0.0 0.00 0.00 0.00 95 1012.9
20260509083011 55 180 0.0 0.0 0.00 0.00 0.00 95 1012.9
20260509082506 55 219 0.0 0.0 0.00 0.00 0.00 95 1012.9
20260509082006 55 225 0.0 0.0 0.00 0.00 0.00 95 1012.9
20260509081506 55 218 0.0 0.0 0.00 0.00 0.00 95 1013.0
20260509081006 55 216 0.0 0.0 0.00 0.00 0.00 95 1013.1
20260509080505 55 216 0.0 0.0 0.00 0.00 0.00 95 1013.2
20260509080006 55 163 0.0 0.0 0.00 0.00 0.00 95 1013.0
20260509075507 55 163 0.0 0.0 0.00 0.00 0.00 95 1013.0
20260509075007 55 163 0.0 2.0 0.00 0.00 0.00 95 1013.1
20260509074507 55 159 0.0 2.0 0.00 0.00 0.00 95 1013.2
20260509074004 55 159 0.0 2.0 0.00 0.00 0.00 95 1013.1
20260509073503 55 177 0.0 2.0 0.00 0.00 0.00 95 1013.2
20260509073003 55 163 0.0 2.0 0.00 0.00 0.00 94 1013.2
20260509072503 55 184 0.0 4.0 0.00 0.00 0.00 94 1013.3
20260509072003 55 170 0.0 4.0 0.00 0.00 0.00 94 1013.2
20260509071505 55 145 0.0 0.0 0.00 0.00 0.00 94 1013.3
20260509071004 55 145 0.0 0.0 0.00 0.00 0.00 94 1013.3
20260509070505 54 46 0.0 0.0 0.00 0.00 0.00 93 1013.4
20260509070228 55 46 0.0 0.0 0.00 0.00 0.00 92 1013.6
20260509065500 55 46 0.0 0.0 0.00 0.00 0.00 93 1013.7
20260509064954 55 46 0.0 0.0 0.00 0.00 0.00 92 1013.7
20260509064711 55 46 0.0 0.0 0.00 0.00 0.00 92 1013.7
20260509063942 55 46 0.0 0.0 0.00 0.00 0.00 92 1013.6
20260509063435 55 46 0.0 0.0 0.00 0.00 0.00 91 1013.6
20260509062930 55 46 0.0 0.0 0.00 0.00 0.00 92 1013.6
20260509062425 55 46 0.0 0.0 0.00 0.00 0.00 93 1013.6
20260509061919 55 46 0.0 0.0 0.00 0.00 0.00 92 1013.7
20260509061412 56 46 0.0 0.0 0.00 0.00 0.00 92 1013.7
20260509060908 56 46 0.0 0.0 0.00 0.00 0.00 92 1013.6
20260509060400 56 46 0.0 0.0 0.00 0.00 0.00 93 1013.6
20260509055855 56 46 0.0 0.0 0.00 0.00 0.00 93 1013.6
20260509055616 56 46 0.0 0.0 0.00 0.00 0.00 93 1013.7
20260509054842 56 46 0.0 0.0 0.00 0.00 0.00 93 1013.7
20260509054336 56 46 0.0 0.0 0.00 0.00 0.00 92 1013.7
20260509053829 56 46 0.0 0.0 0.00 0.00 0.00 92 1013.8
20260509053324 56 46 0.0 0.0 0.00 0.00 0.00 92 1013.8
20260509052818 56 46 0.0 0.0 0.00 0.00 0.00 91 1013.8
20260509052312 56 46 0.0 0.0 0.00 0.00 0.00 91 1013.9
20260509051806 56 46 0.0 0.0 0.00 0.00 0.00 91 1013.9
20260509051301 56 46 0.0 0.0 0.00 0.00 0.00 91 1014.0
20260509050754 57 46 0.0 0.0 0.00 0.00 0.00 91 1013.9
20260509050248 57 46 0.0 0.0 0.00 0.00 0.00 91 1013.8
20260509045743 57 46 0.0 0.0 0.00 0.00 0.00 91 1013.8
20260509045457 57 46 0.0 0.0 0.00 0.00 0.00 91 1013.9
20260509044731 57 46 0.0 0.0 0.00 0.00 0.00 91 1013.8
20260509044224 57 46 0.0 0.0 0.00 0.00 0.00 91 1013.8
20260509043718 57 46 0.0 0.0 0.00 0.00 0.00 90 1013.7
20260509043212 57 46 0.0 0.0 0.00 0.00 0.00 90 1013.7
20260509042706 57 46 0.0 0.0 0.00 0.00 0.00 90 1013.4
20260509042200 58 46 0.0 0.0 0.00 0.00 0.00 90 1013.4
20260509041654 58 46 0.0 0.0 0.00 0.00 0.00 90 1013.4
20260509041149 58 46 0.0 0.0 0.00 0.00 0.00 89 1013.6
20260509040642 58 46 0.0 0.0 0.00 0.00 0.00 89 1013.6
20260509040135 58 46 0.0 0.0 0.00 0.00 0.00 89 1013.4
20260509040108 58 46 0.0 0.0 0.00 0.00 0.00 89 1013.6
20260509035124 58 46 0.0 0.0 0.00 0.00 0.00 87 1013.4
20260509034845 59 46 0.0 0.0 0.00 0.00 0.00 87 1013.3
20260509034333 59 46 0.0 0.0 0.00 0.00 0.00 87 1013.2
20260509033606 59 46 0.0 0.0 0.00 0.00 0.00 86 1013.1
20260509033100 60 46 0.0 0.0 0.00 0.00 0.00 86 1013.1
20260509032819 60 46 0.0 0.0 0.00 0.00 0.00 85 1013.0
20260509032048 60 46 0.0 0.0 0.00 0.00 0.00 83 1013.1
20260509031802 61 46 0.0 0.0 0.00 0.00 0.00 82 1013.1
20260509031036 62 46 0.0 0.0 0.00 0.00 0.00 81 1013.1
20260509030530 62 46 0.0 0.0 0.00 0.00 0.00 80 1013.1
20260509030024 63 46 0.0 0.0 0.00 0.00 0.00 78 1013.0
20260509025518 64 46 0.0 0.0 0.00 0.00 0.00 77 1012.9
20260509025012 64 46 0.0 0.0 0.00 0.00 0.00 76 1012.8
20260509024506 65 46 0.0 0.0 0.00 0.00 0.00 75 1012.7